Temperature
13 13 13 13 13 13 13 13 13 12 12 12 12 12 11 11 11 11 11 10 10 10 10 9 9 9 8 8 7 7 7 6 6 6 6 6 6 5 5 5 5 5 4
13 13 13 13 13 12 12 12 12 12 12 11 11 11 11 11 11 10 10 10 10 9 9 9 8 8 7 7 7 6 6 6 5 5 5 5 5 5 5 4 4 4 4
12 12 12 12 12 12 12 11 11 11 11 11 11 10 10 10 10 10 10 9 9 8 8 8 7 7 7 6 6 6 5 5 5 5 5 5 5 4 4 4 3 3 3
11 11 11 11 11 11 11 11 11 10 10 10 10 10 10 9 9 9 9 8 8 8 7 7 7 6 6 6 5 5 5 4 4 4 4 4 4 4 4 3 3 3 3
10 10 11 10 10 10 10 10 10 10 9 9 9 9 9 9 8 8 8 7 7 7 6 6 6 5 5 5 4 4 4 4 4 4 4 3 4 3 3 3 3 2 2
9 10 10 9 9 9 9 9 9 9 9 8 8 8 8 8 7 7 7 6 6 6 5 5 5 4 4 4 4 3 3 3 3 3 3 3 3 3 3 2 2 2 2
9 9 8 8 8 8 8 8 8 8 8 7 7 7 7 7 7 6 6 6 5 5 4 4 4 3 3 3 3 3 3 3 2 2 2 2 2 2 2 2 2 2 1
8 8 8 7 7 7 7 7 7 7 7 7 7 6 6 6 6 5 5 5 4 4 4 3 3 2 2 2 2 2 2 2 2 2 2 2 2 2 2 1 1 1 1
7 7 7 7 7 7 7 7 6 6 6 6 6 6 5 5 5 5 4 4 4 3 3 2 2 2 2 1 1 1 1 1 1 1 1 1 1 1 1 1 1 1 0
7 7 7 6 6 6 6 6 6 6 5 5 5 5 5 4 4 4 4 3 3 2 2 2 1 1 1 1 1 1 1 0 0 0 0 0 0 0 0 0 -0 -0 -0
6 6 6 6 6 6 5 5 5 5 5 5 5 4 4 4 3 3 3 2 2 2 1 1 0 0 0 -0 -0 -0 -0 -0 -0 -0 -1 -1 -1 -1 -1 -1 -1 -1 -1
5 5 5 5 5 5 5 5 4 4 4 4 4 4 3 3 3 2 2 2 1 1 1 0 -0 -0 -0 -0 -1 -1 -1 -1 -1 -1 -1 -1 -1 -1 -1 -1 -1 -1 -1
5 5 5 5 4 4 4 4 4 4 4 4 3 3 3 2 2 2 1 1 1 0 -0 -0 -1 -1 -1 -1 -1 -1 -1 -1 -2 -2 -2 -2 -2 -2 -2 -2 -2 -2 -2
4 4 4 4 4 4 4 3 3 3 3 3 3 3 2 2 2 1 1 1 0 -0 -0 -1 -1 -1 -1 -1 -1 -2 -2 -2 -2 -2 -2 -2 -3 -3 -2 -2 -2 -2 -2
3 3 3 3 3 3 3 3 3 3 2 2 2 2 2 2 1 1 1 0 0 -0 -1 -1 -1 -1 -1 -1 -2 -2 -2 -2 -2 -2 -3 -3 -3 -3 -3 -3 -3 -3 -3
3 3 3 3 3 3 3 3 2 2 2 2 2 1 1 1 1 0 0 -0 -0 -1 -1 -1 -1 -1 -1 -2 -2 -2 -2 -2 -3 -3 -3 -3 -3 -3 -3 -3 -3 -3 -3
2 2 2 2 2 2 2 2 2 2 1 1 1 1 1 1 0 0 -0 -1 -1 -1 -2 -1 -1 -2 -2 -2 -2 -2 -2 -3 -3 -3 -3 -3 -3 -3 -3 -3 -3 -3 -3
1 1 1 1 1 1 1 1 1 1 1 1 1 0 0 0 -0 -0 -1 -1 -1 -1 -1 -1 -2 -2 -2 -2 -2 -2 -3 -3 -3 -3 -3 -3 -3 -3 -3 -3 -3 -3 -3
1 1 1 1 1 1 0 0 0 0 0 0 0 -0 -0 -0 -1 -1 -1 -1 -1 -1 -1 -2 -2 -2 -2 -2 -2 -3 -3 -3 -3 -3 -3 -3 -3 -3 -3 -3 -3 -3 -4
-0 -0 -0 -0 -0 -0 -0 -0 -0 -0 -0 -0 -0 -1 -1 -1 -1 -1 -1 -2 -2 -2 -2 -2 -2 -2 -2 -2 -3 -3 -3 -3 -3 -3 -3 -3 -3 -3 -3 -3 -4 -4 -4
-1 -1 -1 -1 -1 -1 -1 -1 -1 -1 -1 -1 -1 -1 -2 -2 -2 -2 -2 -2 -2 -2 -2 -3 -3 -3 -3 -3 -3 -3 -3 -3 -3 -3 -3 -3 -3 -4 -4 -4 -4 -4 -4
-2 -2 -2 -2 -2 -2 -2 -2 -2 -2 -2 -2 -2 -2 -2 -2 -3 -3 -3 -3 -3 -3 -3 -3 -3 -3 -3 -3 -3 -4 -4 -4 -4 -4 -4 -4 -4 -4 -4 -4 -4 -5 -5
-2 -2 -2 -2 -2 -2 -2 -2 -2 -3 -3 -3 -3 -3 -3 -3 -3 -3 -3 -3 -3 -4 -4 -4 -4 -4 -4 -4 -4 -4 -4 -4 -4 -4 -4 -4 -4 -4 -5 -5 -5 -5 -5
-3 -3 -3 -3 -3 -3 -3 -3 -3 -3 -3 -3 -3 -3 -3 -4 -4 -4 -4 -4 -4 -4 -4 -4 -4 -4 -4 -4 -4 -4 -4 -5 -5 -5 -5 -5 -5 -5 -5 -5 -5 -5 -6
-4 -4 -4 -4 -4 -4 -4 -4 -4 -4 -4 -4 -4 -4 -4 -4 -4 -5 -5 -5 -5 -5 -5 -5 -5 -5 -5 -5 -5 -5 -5 -5 -5 -5 -5 -6 -6 -6 -6 -6 -6 -6 -6
-5 -4 -4 -4 -4 -4 -4 -5 -5 -5 -5 -5 -5 -5 -5 -5 -5 -5 -5 -5 -5 -5 -5 -5 -5 -5 -5 -5 -5 -5 -5 -5 -5 -6 -6 -6 -6 -6 -6 -6 -6 -7 -7
Wind_Speed
4 5 6 5 6 7 7 7 7 7 7 7 7 7 6 6 5 5 4 4 4 3 2 2 2 1 1 1 1 2 2 3 4 1 1 1 2 3 4 6 7 7 7
4 5 5 5 6 7 7 7 7 8 7 7 7 7 6 6 5 5 5 4 4 3 3 2 1 1 0 1 1 1 2 2 3 3 2 2 2 3 3 4 5 6 7
4 5 6 5 6 6 7 7 8 8 8 7 7 7 7 6 6 5 5 4 4 4 3 2 2 1 1 1 1 1 1 1 1 2 2 1 1 2 3 2 3 4 6
4 5 5 5 6 7 7 7 7 8 8 7 7 7 6 6 6 5 5 4 4 3 3 2 1 1 2 2 1 2 1 1 1 2 2 2 2 2 2 2 2 1 2
4 4 5 5 6 7 7 7 7 8 7 7 7 7 6 5 5 5 5 5 4 3 2 2 1 1 2 2 1 1 1 1 1 2 2 2 2 2 3 3 2 2 1
4 4 5 6 7 7 7 8 8 8 7 7 7 7 6 4 6 7 6 5 4 4 3 2 1 1 2 2 2 1 1 2 2 2 2 3 3 3 3 3 3 3 2
4 5 5 6 7 7 7 8 8 7 7 7 6 6 5 5 6 6 6 5 4 3 3 2 1 2 3 3 3 4 4 3 1 2 3 4 4 5 5 4 3 3 2
4 5 5 6 7 7 7 7 6 6 6 6 6 6 5 4 5 6 6 5 4 3 2 3 3 2 2 3 3 3 4 4 3 1 2 2 3 4 5 5 4 4 3
4 5 6 7 8 8 8 7 5 5 5 4 4 5 5 4 4 5 6 4 3 2 2 2 3 3 3 4 4 3 2 3 5 5 4 3 3 6 8 6 5 3 2
4 5 5 6 7 8 7 6 5 5 5 5 5 4 4 4 5 6 7 4 3 2 2 2 4 4 5 5 4 4 2 0 2 3 5 6 6 5 5 4 4 3 2
2 4 5 6 6 7 6 5 6 6 6 5 5 4 3 4 4 6 7 4 4 4 3 3 3 5 5 5 5 4 4 3 3 3 3 3 3 4 4 4 3 3 3
3 4 5 5 5 6 7 6 6 7 6 5 4 3 3 3 5 6 8 8 7 5 4 4 4 6 6 6 4 5 6 4 3 3 2 1 1 1 2 3 4 4 3
3 3 4 5 5 6 7 7 6 6 5 5 5 4 3 3 4 8 9 9 9 5 5 7 7 7 6 4 5 6 5 4 4 3 3 2 2 2 2 2 3 4 5
2 3 4 4 4 4 4 5 5 6 6 5 5 5 4 3 4 4 4 4 6 5 4 5 7 7 5 5 4 3 3 5 4 4 3 3 3 3 2 2 2 1 1
2 2 3 3 4 4 4 4 5 5 6 7 6 6 5 5 6 9 6 5 5 5 5 3 2 2 3 3 3 3 3 4 4 3 4 3 3 3 3 3 3 2 2
1 2 2 2 3 3 3 2 4 4 7 8 8 7 6 8 7 8 10 11 11 11 6 4 5 5 5 5 5 5 4 5 5 5 5 5 5 5 4 3 3 3 4
1 1 1 2 2 3 3 3 2 3 5 7 8 9 9 9 9 9 9 10 12 12 6 5 5 6 6 6 6 6 5 5 5 5 6 5 5 5 4 5 5 4 4
0 1 1 2 2 2 3 3 3 3 3 3 5 8 9 9 9 9 10 8 6 7 5 6 6 6 6 6 6 6 6 5 5 6 6 6 6 6 5 6 6 6 6
1 0 0 1 1 2 2 3 3 3 3 3 2 3 6 7 8 9 9 5 5 6 6 6 6 6 6 6 6 6 6 6 6 6 7 7 7 7 7 7 7 10 8
1 1 1 1 1 2 2 2 3 3 3 3 3 3 2 3 3 4 5 5 5 6 6 6 6 6 6 6 6 6 6 7 7 7 7 7 7 7 8 9 8 8 8
1 1 2 1 1 2 2 3 3 3 3 3 4 4 5 4 4 5 4 5 5 6 6 6 6 6 6 6 6 7 8 7 7 7 7 8 8 8 8 8 8 8 7
1 1 1 1 1 1 2 2 2 3 3 3 3 3 5 3 3 4 4 4 4 5 5 5 5 6 6 6 7 7 8 8 8 7 7 7 7 8 8 8 8 8 8
1 2 2 2 2 2 2 2 2 2 3 3 3 2 3 3 3 4 4 4 4 4 4 4 5 5 6 7 8 7 8 8 8 8 8 8 8 8 8 9 10 9 9
2 2 2 2 2 2 2 2 2 2 2 2 2 3 3 3 3 4 4 3 4 4 4 5 5 6 7 7 8 10 11 11 11 10 10 9 8 8 8 8 9 10 10
2 2 2 2 2 2 2 2 2 2 2 3 3 3 3 3 3 3 4 4 4 4 5 5 6 7 8 10 10 10 12 14 14 12 11 9 9 9 9 9 8 8 9
2 2 2 2 2 2 2 2 2 2 3 3 3 3 3 3 4 4 4 4 4 4 4 5 6 8 9 9 11 12 13 14 15 15 12 8 9 9 9 8 10 9 9
Wind_Direction
163 164 161 162 159 154 153 156 155 149 149 151 148 142 139 137 136 134 135 134 134 134 139 149 161 167 198 243 242 234 237 237 248 197 130 130 144 144 119 106 94 86 81
144 137 143 145 146 147 147 148 144 142 143 141 137 134 134 135 134 136 140 139 141 148 149 146 157 142 199 271 263 258 250 243 232 218 167 151 153 153 126 110 91 84 78
132 134 134 139 141 143 141 138 138 137 135 133 134 136 135 133 130 131 134 135 138 139 141 150 158 151 244 273 270 266 260 258 229 185 167 140 133 136 118 96 86 70 75
130 135 138 142 142 138 133 130 131 131 131 129 127 129 130 128 129 129 127 126 120 111 114 130 154 179 220 241 252 256 250 239 201 167 157 148 137 127 133 143 131 72 56
133 135 139 134 128 127 126 125 124 124 126 127 124 119 118 121 129 130 127 129 125 114 101 97 115 158 203 209 214 229 214 210 192 180 172 157 165 163 182 162 155 120 66
141 145 137 132 130 131 131 128 124 122 122 122 123 125 124 124 135 138 137 131 133 137 136 124 109 94 80 69 61 74 177 197 204 190 193 203 200 186 153 151 140 145 195
153 146 143 143 142 140 136 132 132 131 127 123 125 128 127 130 137 138 137 133 139 151 158 154 131 104 87 71 58 50 36 25 222 190 204 211 196 186 163 156 160 160 169
161 156 154 150 149 145 141 141 138 133 134 134 136 134 129 138 143 141 136 128 137 148 158 164 161 150 148 130 100 68 39 21 20 51 210 219 204 175 166 158 146 117 90
176 173 169 160 155 153 152 148 139 135 135 137 140 145 148 157 160 159 144 131 139 152 162 171 175 180 194 167 135 116 61 14 37 69 79 99 131 147 140 122 128 124 141
202 187 172 166 163 162 158 148 140 142 146 145 144 154 161 172 181 178 161 145 155 169 177 195 207 205 210 196 163 159 170 219 49 59 60 62 68 93 122 135 147 139 144
189 164 162 164 162 156 148 145 147 145 145 150 156 164 175 192 202 199 185 163 173 180 192 202 220 223 220 213 191 183 203 179 136 110 87 69 61 60 62 82 109 139 153
156 157 158 155 151 150 149 148 149 152 156 162 169 181 196 209 216 216 210 201 190 182 196 201 213 222 224 220 207 200 203 173 139 137 136 141 128 108 80 84 93 96 111
137 150 150 144 145 151 155 156 158 164 170 179 183 198 210 209 220 224 221 216 210 194 198 207 214 221 226 226 220 213 196 160 155 174 194 203 190 159 129 103 86 85 80
136 145 144 144 146 152 158 166 174 181 185 188 194 205 212 212 215 216 214 218 217 207 196 210 219 222 213 206 219 216 175 173 177 190 196 184 155 151 161 154 145 131 117
122 135 142 148 156 164 174 187 193 200 197 195 200 198 202 219 224 213 199 198 190 187 166 158 168 180 195 191 192 195 187 188 198 183 184 182 184 183 183 167 163 162 178
121 138 153 160 166 171 176 193 214 214 218 218 212 205 213 221 226 224 221 218 212 203 188 185 197 203 209 210 209 209 204 205 203 196 195 196 198 197 194 181 182 189 205
138 168 167 171 176 181 184 190 210 228 229 231 229 228 227 227 230 230 228 222 218 211 208 202 207 210 213 213 212 212 214 210 199 199 204 204 202 201 198 201 202 207 217
66 173 185 195 196 195 199 202 204 212 229 243 239 238 238 238 235 230 227 218 220 215 207 210 215 214 214 214 215 216 217 208 202 206 208 207 203 202 206 210 209 211 217
10 348 212 202 199 205 207 206 212 219 227 233 240 252 244 244 239 234 223 214 213 217 215 216 216 214 216 216 216 215 214 212 207 205 210 209 206 206 214 215 214 222 221
328 327 310 229 217 215 213 213 220 225 228 230 234 236 224 217 224 227 219 214 218 223 223 223 220 218 217 217 216 215 216 217 214 214 215 212 208 208 215 215 214 217 220
318 312 319 290 249 234 227 225 226 228 233 238 240 238 227 221 229 232 230 226 226 228 227 226 224 220 220 218 218 218 219 222 219 217 216 214 210 212 216 216 217 218 221
310 305 294 281 278 267 252 238 233 235 239 245 252 254 250 238 233 237 239 240 238 235 230 227 228 225 221 220 221 221 223 225 221 217 218 216 214 215 214 214 216 216 217
302 298 294 289 278 276 273 256 247 247 251 252 253 251 245 240 241 242 245 247 245 244 236 230 234 235 228 228 225 223 228 229 223 215 215 216 215 216 215 216 215 214 217
294 286 282 284 280 271 267 264 263 264 263 264 263 263 260 255 254 256 258 258 255 251 242 237 237 240 239 238 236 233 236 238 231 222 215 217 216 217 216 219 219 218 218
295 295 293 286 283 278 273 268 265 268 271 274 274 273 274 273 271 272 271 266 263 261 259 253 250 248 248 247 245 243 243 244 240 233 222 218 221 218 217 219 221 221 218
299 295 293 289 282 279 276 273 271 271 272 276 277 279 280 278 276 276 275 272 270 268 270 267 265 264 263 260 256 255 253 252 248 241 231 221 220 221 219 223 220 220 220
Height
1472 1475 1478 1481 1484 1487 1490 1493 1496 1498 1501 1503 1506 1508 1510 1512 1514 1515 1517 1518 1519 1520 1520 1521 1521 1521 1521 1520 1520 1520 1520 1520 1520 1520 1520 1521 1521 1521 1521 1521 1521 1521 1521
1469 1472 1475 1478 1480 1483 1486 1489 1492 1494 1497 1499 1502 1504 1506 1508 1510 1511 1512 1513 1514 1514 1515 1515 1515 1515 1515 1515 1515 1515 1515 1515 1515 1515 1515 1516 1516 1517 1517 1518 1518 1518 1518
1466 1469 1472 1474 1477 1480 1482 1485 1488 1490 1493 1496 1498 1500 1502 1504 1505 1506 1507 1508 1509 1509 1510 1510 1510 1510 1510 1511 1510 1510 1510 1510 1511 1511 1511 1512 1512 1512 1513 1514 1514 1514 1514
1463 1466 1468 1471 1473 1476 1479 1481 1484 1487 1489 1492 1494 1496 1497 1499 1500 1502 1503 1504 1504 1504 1505 1505 1505 1505 1506 1506 1506 1505 1506 1506 1506 1506 1507 1507 1508 1508 1509 1509 1510 1511 1511
1461 1463 1465 1468 1470 1472 1475 1478 1480 1483 1486 1488 1490 1491 1493 1495 1496 1497 1498 1499 1500 1500 1500 1501 1501 1501 1501 1501 1501 1501 1501 1501 1502 1502 1502 1503 1503 1504 1505 1506 1506 1507 1508
1458 1460 1462 1464 1466 1469 1472 1474 1477 1479 1482 1484 1486 1488 1489 1491 1492 1493 1494 1494 1495 1496 1496 1496 1496 1497 1497 1497 1497 1497 1498 1498 1497 1498 1498 1498 1499 1500 1501 1502 1503 1503 1505
1456 1457 1459 1461 1464 1466 1468 1471 1474 1476 1478 1480 1482 1484 1486 1487 1488 1489 1489 1490 1491 1491 1492 1492 1492 1493 1493 1493 1493 1493 1494 1493 1494 1494 1494 1495 1495 1496 1497 1498 1499 1500 1501
1453 1455 1457 1459 1461 1463 1465 1468 1471 1473 1475 1477 1479 1480 1482 1483 1484 1485 1486 1487 1487 1488 1488 1488 1489 1489 1489 1489 1490 1490 1490 1490 1490 1490 1491 1491 1492 1492 1493 1495 1496 1497 1498
1450 1452 1454 1456 1458 1460 1462 1465 1467 1470 1472 1474 1475 1477 1478 1480 1481 1481 1482 1483 1483 1484 1484 1484 1485 1485 1486 1486 1486 1486 1486 1487 1487 1487 1487 1488 1488 1489 1490 1491 1492 1493 1494
1448 1450 1452 1454 1456 1458 1460 1462 1464 1466 1469 1470 1472 1474 1475 1476 1477 1478 1478 1479 1479 1480 1480 1481 1481 1482 1482 1482 1483 1483 1483 1484 1484 1484 1484 1485 1486 1486 1487 1488 1489 1491 1491
1446 1447 1449 1451 1453 1455 1457 1459 1461 1463 1465 1467 1468 1470 1471 1472 1473 1474 1474 1475 1476 1476 1477 1477 1478 1478 1479 1479 1480 1480 1480 1481 1481 1481 1482 1482 1483 1484 1485 1486 1486 1488 1489
1443 1444 1446 1448 1449 1452 1454 1456 1458 1460 1462 1463 1465 1466 1468 1469 1469 1470 1470 1471 1472 1472 1473 1474 1474 1475 1476 1476 1477 1477 1477 1477 1478 1478 1479 1480 1480 1481 1482 1483 1484 1485 1486
1441 1442 1443 1445 1446 1448 1450 1453 1455 1456 1458 1459 1461 1462 1464 1465 1465 1466 1467 1467 1468 1469 1470 1470 1471 1472 1472 1473 1473 1474 1474 1474 1475 1476 1476 1477 1478 1478 1479 1480 1481 1482 1483
1439 1440 1441 1442 1443 1445 1447 1449 1451 1453 1454 1456 1457 1458 1459 1460 1461 1462 1463 1463 1464 1465 1466 1467 1468 1468 1469 1469 1470 1470 1471 1471 1472 1473 1473 1474 1475 1476 1476 1477 1478 1479 1480
1437 1438 1438 1439 1441 1443 1444 1446 1448 1449 1451 1452 1453 1454 1455 1456 1457 1458 1458 1459 1460 1461 1462 1463 1463 1464 1465 1466 1466 1467 1467 1468 1468 1469 1470 1471 1472 1472 1473 1474 1475 1475 1476
1435 1436 1436 1437 1439 1440 1441 1443 1443 1445 1446 1447 1448 1450 1450 1452 1452 1453 1454 1455 1456 1457 1457 1458 1459 1460 1461 1462 1463 1463 1464 1464 1465 1466 1466 1467 1468 1469 1469 1470 1471 1472 1472
1433 1434 1434 1435 1436 1437 1437 1439 1440 1441 1442 1443 1444 1445 1446 1447 1448 1449 1449 1450 1451 1452 1453 1453 1454 1456 1456 1457 1458 1459 1459 1460 1461 1461 1462 1463 1464 1464 1465 1466 1466 1467 1468
1431 1431 1432 1432 1433 1433 1434 1435 1435 1436 1437 1438 1439 1440 1441 1442 1443 1444 1445 1446 1446 1447 1448 1449 1450 1451 1452 1452 1453 1454 1454 1455 1456 1456 1457 1458 1459 1459 1460 1461 1461 1462 1463
1429 1429 1429 1429 1429 1430 1430 1431 1431 1432 1433 1433 1434 1435 1436 1437 1438 1439 1440 1441 1441 1442 1443 1444 1445 1446 1446 1447 1448 1448 1449 1449 1450 1451 1452 1453 1453 1454 1455 1455 1456 1457 1457
1426 1426 1426 1426 1426 1426 1427 1427 1427 1428 1429 1429 1430 1431 1432 1432 1433 1434 1435 1435 1436 1437 1438 1438 1439 1440 1441 1441 1442 1442 1443 1443 1444 1445 1446 1447 1447 1448 1449 1449 1450 1451 1451
1423 1422 1422 1422 1422 1423 1423 1423 1424 1424 1425 1425 1426 1427 1427 1428 1428 1429 1429 1430 1431 1431 1432 1433 1433 1434 1434 1435 1435 1436 1436 1437 1438 1438 1439 1440 1441 1441 1442 1443 1443 1444 1445
1419 1419 1419 1419 1419 1419 1419 1420 1420 1420 1420 1421 1421 1422 1422 1423 1423 1424 1424 1425 1425 1425 1426 1426 1427 1427 1428 1428 1429 1429 1429 1430 1431 1431 1432 1433 1434 1434 1435 1435 1436 1437 1438
1416 1416 1415 1415 1415 1415 1416 1416 1416 1416 1416 1416 1417 1417 1417 1418 1418 1418 1419 1419 1419 1419 1420 1420 1420 1421 1421 1422 1422 1422 1423 1423 1424 1424 1425 1425 1426 1427 1427 1428 1429 1429 1430
1413 1412 1412 1411 1411 1411 1411 1411 1411 1412 1412 1412 1412 1412 1412 1413 1413 1413 1413 1413 1413 1413 1413 1413 1414 1414 1414 1415 1415 1415 1416 1416 1417 1417 1417 1418 1418 1419 1419 1420 1421 1422 1423
1410 1409 1408 1408 1407 1407 1407 1407 1407 1407 1407 1407 1407 1407 1407 1407 1407 1407 1407 1407 1407 1407 1407 1407 1407 1407 1407 1407 1408 1408 1408 1408 1409 1409 1409 1410 1410 1411 1412 1413 1413 1414 1415
1406 1406 1405 1404 1404 1403 1403 1403 1403 1403 1402 1402 1402 1402 1402 1401 1401 1401 1401 1401 1400 1400 1400 1400 1400 1400 1400 1400 1400 1400 1400 1400 1401 1401 1402 1402 1402 1403 1404 1405 1405 1406 1407